Regional Weather Roundup
Issued by NWS

Home | Current Version | Previous Version | Graphics & Text | Print | Product List | Glossary On
Versions: 1 2 3 4 5 6 7 8 9 10 11 12 13 14 15 16 17 18 19 20 21 22 23 24 25 26 27 28 29 30 31 32 33 34 35 36 37 38 39 40 41 42 43 44 45 46 47 48 49 50
000
ASUS45 KBOI 300710
RWRID
WEATHER ROUNDUP FOR IDAHO
NATIONAL WEATHER SERVICE BOISE ID
1200 AM MST FRI JAN 30 2015

NOTE: "FAIR" INDICATES FEW OR NO CLOUDS BELOW 12000 FEET
WITH NO SIGNIFICANT WEATHER AND/OR OBSTRUCTIONS TO VISIBILITY

IDZ012-014-300800-
SOUTHWEST IDAHO


CITY           SKY/WX    TMP DP  RH WIND       PRES   REMARKS
BOISE          CLOUDY    35  32  88 CALM      30.32S
CALDWELL       CLOUDY    37  28  70 W5        30.35S WCI  34
MOUNTAIN HOME  CLOUDY    36  34  92 W6        30.31R WCI  31
$$

IDZ016-017-300800-
SOUTHCENTRAL IDAHO


CITY           SKY/WX    TMP DP  RH WIND       PRES   REMARKS
BURLEY         CLOUDY    35  29  78 E9        30.26F WCI  28
JEROME         CLOUDY    34  29  82 E8        30.28S WCI  27
TWIN FALLS     CLOUDY    35  32  88 S6        30.28S WCI  30
$$

IDZ019>023-300800-
SOUTHEAST IDAHO


CITY           SKY/WX    TMP DP  RH WIND       PRES   REMARKS
IDAHO FALLS    CLOUDY    30  27  88 N9        30.29S WCI  22
POCATELLO      CLEAR     30  30 100 CALM      30.28F
REXBURG        CLOUDY    27  23  85 N5        30.29S WCI  22
$$

IDZ006-010-011-018-031-032-300800-
CENTRAL IDAHO MOUNTAINS


CITY           SKY/WX    TMP DP  RH WIND       PRES   REMARKS
MCCALL         CLEAR     20  17  88 CALM      30.27S
HAILEY         MOCLDY    28  23  80 NW10      30.29S WCI  19
STANLEY          N/A     10   5  80 CALM      30.32R
SALMON         CLOUDY    21  19  93 CALM      30.39S
CHALLIS        CLOUDY    29  24  82 CALM      30.35S
$$

IDZ002-004-006-007-026-300800-
NORTHERN IDAHO


CITY           SKY/WX    TMP DP  RH WIND       PRES   REMARKS
LEWISTON       CLOUDY    38  35  89 NE6       30.38S WCI  33
LOWELL           N/A     32  30  92 CALM      30.43S
COEUR D`ALENE  CLOUDY    30  28  93 NE8       30.37R VSB 1/4 WCI  23
MULLAN PASS    CLEAR     31  22  69 S3        30.28S
$$



USA.gov is the U.S. government's official web portal to all federal, state and local government web resources and services.